FW0743 Weather Reports


time (UTC)temp
C
wind
direction
speed
KPH
gust
KPH
rain 1hr
cm
rain 24hr
cm
rain mn
cm
humidity
%
barometer
mb
20260906131504 16 53 4.8 8.0 0.00 0.00 0.00 85 1018.6
20260906130006 15 66 4.8 11.3 0.00 0.00 0.00 90 1018.7
20260906124507 15 19 3.2 9.7 0.00 0.00 0.00 93 1018.5
20260906123007 14 73 1.6 6.4 0.00 0.00 0.00 97 1018.5
20260906121512 13 5 3.2 8.0 0.00 0.00 0.00 98 1018.5
20260906120007 13 327 1.6 9.7 0.00 0.00 0.00 98 1018.3
20260906114516 12 5 3.2 8.0 0.00 0.00 0.00 98 1018.2
20260906113011 12 31 1.6 6.4 0.00 0.00 0.00 98 1018.2
20260906111508 11 333 1.6 4.8 0.00 0.00 0.00 98 1017.9
20260906110007 11 23 1.6 4.8 0.00 0.00 0.00 98 1017.8
20260906104514 11 347 1.6 4.8 0.00 0.00 0.00 98 1017.6
20260906103008 11 342 1.6 4.8 0.00 0.00 0.00 98 1017.4
20260906101517 11 342 1.6 4.8 0.00 0.00 0.00 98 1017.3
20260906100020 12 29 3.2 6.4 0.00 0.00 0.00 97 1017.1
20260906094506 12 10 3.2 11.3 0.00 0.00 0.00 97 1017.0
20260906093011 12 49 3.2 12.9 0.00 0.00 0.00 98 1016.8
20260906091514 12 23 1.6 6.4 0.00 0.00 0.00 97 1016.4
20260906090015 12 66 1.6 6.4 0.00 0.00 0.00 97 1016.3
20260906084514 12 28 1.6 4.8 0.00 0.00 0.00 97 1016.1
20260906083010 12 23 1.6 4.8 0.00 0.00 0.00 97 1015.9
20260906081518 12 14 0.0 4.8 0.00 0.00 0.00 97 1015.7
20260906080014 12 18 1.6 4.8 0.00 0.00 0.00 97 1015.8
20260906074514 12 20 3.2 6.4 0.00 0.00 0.00 97 1015.7
20260906073019 12 355 0.0 3.2 0.00 0.00 0.00 97 1015.6
20260906071513 13 355 1.6 3.2 0.00 0.00 0.00 97 1015.7
20260906070015 12 355 0.0 3.2 0.00 0.00 0.00 97 1015.7
20260906064516 12 355 0.0 3.2 0.00 0.00 0.00 96 1015.6
20260906063018 12 355 0.0 1.6 0.00 0.00 0.00 96 1015.6
20260906061518 13 355 0.0 1.6 0.00 0.00 0.00 96 1015.7
20260906060025 13 355 0.0 1.6 0.00 0.00 0.00 95 1015.7
20260906054532 13 355 0.0 1.6 0.00 0.00 0.00 95 1015.8
20260906053017 13 355 0.0 1.6 0.00 0.00 0.00 95 1015.8
20260906051518 14 355 0.0 1.6 0.00 0.00 0.00 94 1015.7
20260906050019 14 355 0.0 0.0 0.00 0.00 0.00 94 1015.7
20260906044516 15 355 0.0 1.6 0.00 0.00 0.00 93 1015.7
20260906043021 15 355 0.0 0.0 0.00 0.00 0.00 93 1015.8
20260906041521 15 355 0.0 0.0 0.00 0.00 0.00 93 1015.7
20260906040037 15 355 0.0 3.2 0.00 0.00 0.00 93 1015.8
20260906034523 15 355 0.0 0.0 0.00 0.00 0.00 93 1015.6
20260906033037 15 355 0.0 0.0 0.00 0.00 0.00 92 1015.6
20260906031522 15 355 0.0 1.6 0.00 0.00 0.00 92 1015.5
20260906030021 16 355 0.0 0.0 0.00 0.00 0.00 92 1015.4
20260906024526 16 355 0.0 1.6 0.00 0.00 0.00 91 1015.3
20260906023024 16 355 0.0 3.2 0.00 0.00 0.00 91 1015.3
20260906021514 16 360 1.6 4.8 0.00 0.00 0.00 91 1015.3
20260906020005 16 360 0.0 3.2 0.00 0.00 0.00 91 1015.1
20260906014511 16 5 0.0 3.2 0.00 0.00 0.00 90 1015.1
20260906013013 16 5 0.0 4.8 0.00 0.00 0.00 89 1015.1
20260906011517 17 355 0.0 4.8 0.00 0.00 0.00 89 1015.1
20260906010004 17 33 0.0 6.4 0.00 0.00 0.00 89 1015.1
20260906004504 17 331 0.0 4.8 0.00 0.00 0.00 89 1015.0
20260906003012 17 17 0.0 4.8 0.00 0.00 0.00 88 1014.9
20260906001517 17 341 1.6 8.0 0.00 0.00 0.00 88 1015.0
20260906000017 17 352 1.6 6.4 0.00 0.00 0.00 87 1014.7
20260905234507 17 26 1.6 6.4 0.00 0.00 0.00 86 1014.9
20260905233009 18 343 1.6 11.3 0.00 0.00 0.00 85 1015.0
20260905231519 18 348 3.2 6.4 0.00 0.00 0.00 84 1014.7
20260905230017 19 303 4.8 14.5 0.00 0.00 0.00 82 1014.7
20260905224540 20 5 3.2 11.3 0.00 0.00 0.00 80 1014.6
20260905223008 19 340 6.4 16.1 0.00 0.00 0.00 80 1014.6
20260905221513 20 323 3.2 12.9 0.00 0.00 0.00 78 1014.7
20260905220019 20 321 6.4 17.7 0.00 0.00 0.00 78 1014.6
20260905214520 20 329 6.4 14.5 0.00 0.00 0.00 77 1014.3
20260905213019 20 323 4.8 19.3 0.00 0.00 0.00 76 1014.1
20260905211533 20 11 11.3 19.3 0.00 0.00 0.00 76 1014.0
20260905210026 21 302 6.4 19.3 0.00 0.00 0.00 76 1014.0
20260905204520 21 350 8.0 22.5 0.00 0.00 0.00 75 1014.0
20260905203026 21 350 8.0 19.3 0.00 0.00 0.00 74 1014.1
20260905201525 21 343 8.0 19.3 0.00 0.00 0.00 73 1014.1
20260905200022 21 312 11.3 22.5 0.00 0.00 0.00 73 1014.1
20260905194520 21 345 8.0 16.1 0.00 0.00 0.00 72 1014.0
20260905193027 21 342 6.4 19.3 0.00 0.00 0.00 72 1013.9
20260905191526 21 5 6.4 19.3 0.00 0.00 0.00 71 1014.0
20260905190027 21 319 9.7 19.3 0.00 0.00 0.00 72 1014.0
20260905184527 21 310 12.9 20.9 0.00 0.00 0.00 74 1013.9
20260905183026 21 22 6.4 20.9 0.00 0.00 0.00 73 1014.0
20260905181526 21 9 11.3 24.1 0.00 0.00 0.00 74 1014.0
20260905180032 20 319 9.7 20.9 0.00 0.00 0.00 75 1013.8
20260905174513 20 307 9.7 17.7 0.00 0.00 0.00 77 1013.8
20260905173021 20 334 11.3 17.7 0.00 0.00 0.00 76 1014.0
20260905171529 21 39 11.3 20.9 0.00 0.00 0.00 74 1014.0
20260905170009 21 347 9.7 17.7 0.00 0.00 0.00 73 1014.0
20260905164516 21 281 11.3 24.1 0.00 0.00 0.00 71 1014.0
20260905163016 21 344 9.7 16.1 0.00 0.00 0.00 71 1014.0
20260905161505 21 63 8.0 17.7 0.00 0.00 0.00 72 1014.0
20260905160003 20 76 4.8 20.9 0.00 0.00 0.00 75 1014.1
20260905154511 20 302 8.0 16.1 0.00 0.00 0.00 73 1014.2
20260905153018 20 331 6.4 16.1 0.00 0.00 0.00 75 1014.3
20260905151522 20 30 1.6 17.7 0.00 0.00 0.00 75 1014.3
20260905150004 20 345 6.4 16.1 0.00 0.00 0.00 76 1014.3
20260905144516 19 350 6.4 16.1 0.00 0.00 0.00 78 1014.3
20260905143009 19 324 4.8 14.5 0.00 0.00 0.00 78 1014.3
20260905141517 19 44 4.8 12.9 0.00 0.00 0.00 82 1014.1
20260905140024 18 351 4.8 16.1 0.00 0.00 0.00 82 1014.1
20260905134505 18 316 6.4 16.1 0.00 0.00 0.00 83 1014.2
20260905133009 18 117 4.8 12.9 0.00 0.00 0.00 85 1014.1